UAL540 KDEN-KSAN

Flight info

Callsign UAL540
Flight time N/A
Altitude 30000
Route BAYLR6 TEHRU PLNDL Q86 TTRUE LUCKI1
Aircraft B739/M-SDE2E3FGHIRWXY/LB1

Departure

Time N/A
Airport Denver International Airport (KDEN)

Arrival

Time 2026-04-26 01:24
Airport San Diego International Airport (KSAN)
Time Latitude Longitude Altitude Speed Heading
2026-04-26 00:18 36.49730 -110.94028 29710 ft 416 kts 231°
2026-04-26 00:18 36.47851 -110.96738 29720 ft 415 kts 231°
2026-04-26 00:19 36.44082 -111.02164 29735 ft 414 kts 231°
2026-04-26 00:19 36.40318 -111.07575 29733 ft 414 kts 231°
2026-04-26 00:20 36.36547 -111.12987 29732 ft 414 kts 231°
2026-04-26 00:20 36.32780 -111.18386 29751 ft 414 kts 230°
2026-04-26 00:21 36.29006 -111.23784 29747 ft 414 kts 230°
2026-04-26 00:21 36.25233 -111.29174 29749 ft 414 kts 230°
2026-04-26 00:22 36.21457 -111.34558 29748 ft 413 kts 231°
2026-04-26 00:22 36.17686 -111.39926 29748 ft 413 kts 230°
2026-04-26 00:23 36.13910 -111.45294 29755 ft 413 kts 230°
2026-04-26 00:23 36.10129 -111.50660 29754 ft 414 kts 230°
2026-04-26 00:24 36.06346 -111.56021 29776 ft 414 kts 230°
2026-04-26 00:24 36.02558 -111.61380 29773 ft 414 kts 230°
2026-04-26 00:25 35.98764 -111.66740 29775 ft 414 kts 230°
2026-04-26 00:25 35.95610 -111.71188 29769 ft 414 kts 230°
2026-04-26 00:26 35.91817 -111.76531 29783 ft 414 kts 230°
2026-04-26 00:26 35.88024 -111.81868 29848 ft 414 kts 230°
2026-04-26 00:27 35.84249 -111.87232 29800 ft 414 kts 233°
2026-04-26 00:27 35.81285 -111.93287 29808 ft 414 kts 242°
2026-04-26 00:28 35.78529 -111.99514 29844 ft 414 kts 241°
2026-04-26 00:28 35.75733 -112.05730 29836 ft 415 kts 241°
2026-04-26 00:29 35.72921 -112.11948 29859 ft 415 kts 241°
2026-04-26 00:29 35.70033 -112.18109 29862 ft 416 kts 240°
2026-04-26 00:30 35.67128 -112.24250 29853 ft 415 kts 240°
2026-04-26 00:30 35.64236 -112.30379 29858 ft 414 kts 240°
2026-04-26 00:31 35.61353 -112.36491 29844 ft 413 kts 240°
2026-04-26 00:31 35.58484 -112.42594 29842 ft 412 kts 241°
2026-04-26 00:32 35.55637 -112.48698 29849 ft 412 kts 240°
2026-04-26 00:32 35.51368 -112.57835 29822 ft 411 kts 240°
2026-04-26 00:33 35.48523 -112.63904 29821 ft 410 kts 240°
2026-04-26 00:33 35.45680 -112.69958 29818 ft 409 kts 240°
2026-04-26 00:34 35.42842 -112.75989 29819 ft 409 kts 240°
2026-04-26 00:34 35.39998 -112.82024 29819 ft 409 kts 240°
2026-04-26 00:35 35.37149 -112.88058 29799 ft 408 kts 240°
2026-04-26 00:35 35.34303 -112.94075 29797 ft 408 kts 240°
2026-04-26 00:36 35.31456 -113.00086 29789 ft 408 kts 240°
2026-04-26 00:36 35.28627 -113.06047 29791 ft 407 kts 240°
2026-04-26 00:37 35.25762 -113.12076 29783 ft 407 kts 240°
2026-04-26 00:37 35.22907 -113.18071 29777 ft 408 kts 240°
2026-04-26 00:38 35.20057 -113.24063 29755 ft 408 kts 240°
2026-04-26 00:38 35.17204 -113.30056 29754 ft 408 kts 240°
2026-04-26 00:39 35.14346 -113.36050 29758 ft 408 kts 240°
2026-04-26 00:39 35.11508 -113.41990 29741 ft 407 kts 240°
2026-04-26 00:40 35.08653 -113.47957 29748 ft 406 kts 240°
2026-04-26 00:40 35.05803 -113.53903 29725 ft 405 kts 240°
2026-04-26 00:41 35.02955 -113.59834 29734 ft 404 kts 239°
2026-04-26 00:41 35.00109 -113.65752 29727 ft 404 kts 239°
2026-04-26 00:42 34.97266 -113.71654 29718 ft 403 kts 239°
2026-04-26 00:42 34.94425 -113.77542 29727 ft 403 kts 239°
2026-04-26 00:43 34.91583 -113.83421 29721 ft 402 kts 239°
2026-04-26 00:43 34.88744 -113.89287 29716 ft 402 kts 239°
2026-04-26 00:44 34.85888 -113.95135 29722 ft 402 kts 238°
2026-04-26 00:44 34.82915 -114.00905 29704 ft 403 kts 238°
2026-04-26 00:45 34.79917 -114.06664 29713 ft 403 kts 238°
2026-04-26 00:45 34.76926 -114.12434 29720 ft 403 kts 237°
2026-04-26 00:46 34.73940 -114.18200 29726 ft 403 kts 237°
2026-04-26 00:46 34.70956 -114.23959 29730 ft 401 kts 237°
2026-04-26 00:47 34.67986 -114.29682 29741 ft 400 kts 237°
2026-04-26 00:47 34.65042 -114.35344 29747 ft 398 kts 237°
2026-04-26 00:48 34.61893 -114.40853 29733 ft 397 kts 230°
2026-04-26 00:48 34.58212 -114.45846 29730 ft 396 kts 229°
2026-04-26 00:49 34.54522 -114.50803 29718 ft 396 kts 229°
2026-04-26 00:49 34.50871 -114.55793 29738 ft 395 kts 229°
2026-04-26 00:50 34.47241 -114.60787 29729 ft 395 kts 229°
2026-04-26 00:50 34.43606 -114.65787 29743 ft 395 kts 229°
2026-04-26 00:51 34.39970 -114.70781 29741 ft 395 kts 229°
2026-04-26 00:51 34.36330 -114.75772 29738 ft 395 kts 229°
2026-04-26 00:52 34.32691 -114.80751 29754 ft 395 kts 229°
2026-04-26 00:52 34.29047 -114.85728 29758 ft 394 kts 229°
2026-04-26 00:53 34.25409 -114.90694 29756 ft 395 kts 229°
2026-04-26 00:53 34.21761 -114.95665 29752 ft 395 kts 229°
2026-04-26 00:54 34.18117 -115.00626 29756 ft 395 kts 229°
2026-04-26 00:54 34.14473 -115.05579 29755 ft 394 kts 229°
2026-04-26 00:55 34.10837 -115.10515 29747 ft 392 kts 229°
2026-04-26 00:55 34.07223 -115.15415 29739 ft 390 kts 229°
2026-04-26 00:56 34.03600 -115.20320 29344 ft 393 kts 229°
2026-04-26 00:56 34.01795 -115.22762 29080 ft 389 kts 229°
2026-04-26 00:56 33.99989 -115.25202 28816 ft 391 kts 229°
2026-04-26 00:57 33.98173 -115.27656 28533 ft 393 kts 229°
2026-04-26 00:57 33.96353 -115.30121 28268 ft 394 kts 229°
2026-04-26 00:57 33.94528 -115.32594 28004 ft 395 kts 229°
2026-04-26 00:57 33.92699 -115.35073 27748 ft 396 kts 229°
2026-04-26 00:58 33.90865 -115.37556 27505 ft 397 kts 229°
2026-04-26 00:58 33.89025 -115.40046 27242 ft 399 kts 229°
2026-04-26 00:58 33.87182 -115.42538 26989 ft 399 kts 229°
2026-04-26 00:58 33.85331 -115.45039 26811 ft 401 kts 229°
2026-04-26 00:59 33.83475 -115.47544 26773 ft 402 kts 229°
2026-04-26 00:59 33.81610 -115.50062 26762 ft 403 kts 229°
2026-04-26 00:59 33.79749 -115.52570 26757 ft 401 kts 229°
2026-04-26 00:59 33.77906 -115.55052 26752 ft 395 kts 229°
2026-04-26 01:00 33.76087 -115.57503 26759 ft 391 kts 229°
2026-04-26 01:00 33.74282 -115.59933 26768 ft 390 kts 229°
2026-04-26 01:00 33.72472 -115.62367 26766 ft 391 kts 229°
2026-04-26 01:00 33.70661 -115.64798 26768 ft 391 kts 229°
2026-04-26 01:01 33.68834 -115.67226 26757 ft 391 kts 229°
2026-04-26 01:01 33.67002 -115.69643 26760 ft 391 kts 229°
2026-04-26 01:01 33.65171 -115.72058 26768 ft 391 kts 229°
2026-04-26 01:01 33.63340 -115.74473 26770 ft 391 kts 229°
2026-04-26 01:02 33.61539 -115.76915 26762 ft 390 kts 232°
2026-04-26 01:02 33.59939 -115.79540 26784 ft 389 kts 235°
2026-04-26 01:02 33.58461 -115.82190 26762 ft 374 kts 236°
2026-04-26 01:02 33.57061 -115.84731 26754 ft 356 kts 236°
2026-04-26 01:03 33.55713 -115.87136 26755 ft 339 kts 236°
2026-04-26 01:03 33.54406 -115.89427 26557 ft 330 kts 235°
2026-04-26 01:03 33.53118 -115.91659 26256 ft 323 kts 235°
2026-04-26 01:03 33.51844 -115.93858 25877 ft 318 kts 235°
2026-04-26 01:04 33.50585 -115.96031 25494 ft 316 kts 235°
2026-04-26 01:04 33.49340 -115.98180 25108 ft 314 kts 235°
2026-04-26 01:04 33.48090 -116.00335 24739 ft 316 kts 235°
2026-04-26 01:04 33.46827 -116.02511 24361 ft 320 kts 235°
2026-04-26 01:05 33.45551 -116.04712 23971 ft 322 kts 235°
2026-04-26 01:05 33.44271 -116.06916 23563 ft 322 kts 235°
2026-04-26 01:05 33.42996 -116.09111 23118 ft 321 kts 235°
2026-04-26 01:05 33.41724 -116.11302 22698 ft 319 kts 235°
2026-04-26 01:06 33.40461 -116.13474 22285 ft 317 kts 235°
2026-04-26 01:06 33.39207 -116.15631 21930 ft 315 kts 234°
2026-04-26 01:06 33.37959 -116.17776 21552 ft 314 kts 234°
2026-04-26 01:06 33.36710 -116.19921 21170 ft 313 kts 234°
2026-04-26 01:07 33.35467 -116.22051 20784 ft 312 kts 234°
2026-04-26 01:07 33.34163 -116.24128 20393 ft 313 kts 226°
2026-04-26 01:07 33.32474 -116.25771 20025 ft 315 kts 214°
2026-04-26 01:07 33.30535 -116.27008 19664 ft 316 kts 211°
2026-04-26 01:08 33.28565 -116.28148 19288 ft 316 kts 210°
2026-04-26 01:08 33.26572 -116.29282 18910 ft 315 kts 210°
2026-04-26 01:08 33.24601 -116.30407 18530 ft 313 kts 210°
2026-04-26 01:08 33.23302 -116.31154 18271 ft 312 kts 210°
2026-04-26 01:09 33.21358 -116.32277 17839 ft 309 kts 210°
2026-04-26 01:09 33.19438 -116.33392 17433 ft 305 kts 210°
2026-04-26 01:09 33.17545 -116.34495 17047 ft 301 kts 210°
2026-04-26 01:09 33.15675 -116.35587 16676 ft 297 kts 211°
2026-04-26 01:10 33.13832 -116.36663 16323 ft 294 kts 210°
2026-04-26 01:10 33.12002 -116.37733 15956 ft 292 kts 210°
2026-04-26 01:10 33.10197 -116.38788 15651 ft 288 kts 210°
2026-04-26 01:10 33.08396 -116.39840 15308 ft 286 kts 210°
2026-04-26 01:11 33.06603 -116.40888 14964 ft 288 kts 210°
2026-04-26 01:11 33.04797 -116.41943 14607 ft 290 kts 210°
2026-04-26 01:11 33.02986 -116.42999 14241 ft 289 kts 210°
2026-04-26 01:11 33.01180 -116.44052 13899 ft 289 kts 211°
2026-04-26 01:12 32.99508 -116.45349 13542 ft 287 kts 221°
2026-04-26 01:12 32.98016 -116.46872 13158 ft 286 kts 222°
2026-04-26 01:12 32.96527 -116.48413 12766 ft 281 kts 223°
2026-04-26 01:12 32.95068 -116.49914 12468 ft 274 kts 222°
2026-04-26 01:13 32.93625 -116.51389 12175 ft 275 kts 222°
2026-04-26 01:13 32.92163 -116.52876 11808 ft 277 kts 222°
2026-04-26 01:13 32.90695 -116.54364 11478 ft 277 kts 222°
2026-04-26 01:13 32.89224 -116.55850 11133 ft 278 kts 222°
2026-04-26 01:14 32.87748 -116.57338 10809 ft 279 kts 221°
2026-04-26 01:14 32.86271 -116.58825 10457 ft 277 kts 221°
2026-04-26 01:14 32.84801 -116.60303 10134 ft 276 kts 221°
2026-04-26 01:14 32.83346 -116.61769 9898 ft 269 kts 221°
2026-04-26 01:15 32.81954 -116.63170 9740 ft 260 kts 221°
2026-04-26 01:15 32.80565 -116.64569 9209 ft 259 kts 221°
2026-04-26 01:15 32.79194 -116.65948 8820 ft 256 kts 221°
2026-04-26 01:15 32.77842 -116.67316 8480 ft 255 kts 224°
2026-04-26 01:16 32.76776 -116.68973 8168 ft 254 kts 241°
2026-04-26 01:16 32.75935 -116.70816 7843 ft 254 kts 240°
2026-04-26 01:16 32.75079 -116.72649 7547 ft 253 kts 240°
2026-04-26 01:16 32.74216 -116.74480 7235 ft 255 kts 241°
2026-04-26 01:17 32.73346 -116.76322 6928 ft 256 kts 240°
2026-04-26 01:17 32.72471 -116.78171 6615 ft 258 kts 240°
2026-04-26 01:17 32.71593 -116.80022 6304 ft 256 kts 240°
2026-04-26 01:17 32.70732 -116.81852 5951 ft 252 kts 243°
2026-04-26 01:18 32.70066 -116.83741 5653 ft 245 kts 250°
2026-04-26 01:18 32.69503 -116.85619 5416 ft 238 kts 250°
2026-04-26 01:18 32.68955 -116.87437 5129 ft 230 kts 250°
2026-04-26 01:18 32.68436 -116.89205 4877 ft 223 kts 251°
2026-04-26 01:19 32.67937 -116.90923 4613 ft 217 kts 251°
2026-04-26 01:19 32.67452 -116.92599 4349 ft 212 kts 253°
2026-04-26 01:19 32.67411 -116.94294 4090 ft 207 kts 287°
2026-04-26 01:19 32.67901 -116.95892 3901 ft 207 kts 283°
2026-04-26 01:20 32.68245 -116.97545 3685 ft 205 kts 282°
2026-04-26 01:20 32.68591 -116.99145 3467 ft 201 kts 283°
2026-04-26 01:20 32.68959 -117.00733 3212 ft 199 kts 283°
2026-04-26 01:20 32.69335 -117.02314 2942 ft 199 kts 283°
2026-04-26 01:21 32.69709 -117.03873 2676 ft 193 kts 283°
2026-04-26 01:21 32.70072 -117.05378 2410 ft 186 kts 284°
2026-04-26 01:21 32.70419 -117.06816 2169 ft 176 kts 284°
2026-04-26 01:21 32.70743 -117.08154 1987 ft 160 kts 283°
2026-04-26 01:22 32.71035 -117.09365 1824 ft 147 kts 283°
2026-04-26 01:22 32.71314 -117.10522 1569 ft 148 kts 284°
2026-04-26 01:22 32.71600 -117.11712 1361 ft 152 kts 284°
2026-04-26 01:22 32.71895 -117.12931 1086 ft 153 kts 282°
2026-04-26 01:23 32.72183 -117.14109 851 ft 145 kts 282°
2026-04-26 01:23 32.72453 -117.15262 642 ft 145 kts 283°
2026-04-26 01:23 32.72731 -117.16396 384 ft 140 kts 284°
2026-04-26 01:23 32.72996 -117.17480 172 ft 134 kts 283°
2026-04-26 01:24 32.73251 -117.18522 25 ft 125 kts 284°
2026-04-26 01:24 32.73439 -117.19304 21 ft 70 kts 286°
2026-04-26 01:24 32.73526 -117.19667 27 ft 26 kts 285°
2026-04-26 01:24 32.73502 -117.19862 26 ft 20 kts 250°
2026-04-26 01:25 32.73493 -117.19904 23 ft 0 kts 260°
2026-04-26 01:25 32.73493 -117.19906 23 ft 1 kts 261°
2026-04-26 01:26 32.73492 -117.19926 23 ft 4 kts 272°
2026-04-26 01:26 32.73499 -117.19972 22 ft 7 kts 286°
2026-04-26 01:26 32.73513 -117.20031 21 ft 8 kts 284°
2026-04-26 01:26 32.73529 -117.20096 21 ft 9 kts 286°
2026-04-26 01:27 32.73546 -117.20172 22 ft 11 kts 285°
2026-04-26 01:27 32.73569 -117.20269 22 ft 14 kts 285°
2026-04-26 01:27 32.73589 -117.20350 18 ft 0 kts 292°
2026-04-26 01:28 32.73590 -117.20350 18 ft 0 kts 292°
2026-04-26 01:28 32.73591 -117.20354 18 ft 1 kts 290°
2026-04-26 01:28 32.73593 -117.20377 19 ft 5 kts 272°
2026-04-26 01:28 32.73571 -117.20428 18 ft 8 kts 231°
2026-04-26 01:29 32.73534 -117.20479 16 ft 8 kts 230°
2026-04-26 01:29 32.73498 -117.20528 18 ft 8 kts 225°
2026-04-26 01:29 32.73451 -117.20554 19 ft 7 kts 189°
2026-04-26 01:29 32.73400 -117.20554 20 ft 7 kts 184°
2026-04-26 01:30 32.73353 -117.20568 23 ft 7 kts 211°
2026-04-26 01:30 32.73311 -117.20595 23 ft 7 kts 195°
2026-04-26 01:30 32.73270 -117.20602 20 ft 3 kts 187°
2026-04-26 01:30 32.73269 -117.20602 20 ft 0 kts 187°
2026-04-26 01:31 32.73264 -117.20602 20 ft 2 kts 186°
2026-04-26 01:31 32.73253 -117.20604 20 ft 0 kts 187°